User: anonymous   Login
Location: Bakersfield
(35.3730°N, 119.0180°W)
Time: 03:35:28
(UTC-08:00)
Language:

Cosmos 1222 Rocket - Orbit

View from above orbital plane
View from above orbital plane
View from above satellite
View from above satellite

Ground track
Ground track

The orbit data is extracted from the following two-line orbital elements,

1 12072U 80093B   15030.89334609  .00093726  00000-0  51369-3 0  3766
2 12072 081.1721 042.4124 0006130 223.6407 136.4372 15.79474109881713
Epoch (UTC): 30 January 2015 21:26:25
Eccentricity: 0.0006130
inclination: 81.1721°
perigee height: 328 km
apogee height: 336 km
right ascension of ascending node: 42.4124°
argument of perigee: 223.6407°
revolutions per day: 15.79474109
mean anomaly at epoch: 136.4372°
orbit number at epoch: 88171

The dashed part of the orbit path shows where the satellite is in the earth's shadow,  

DLR